Location: Newark
(40.4333°N, 3.7000°W)
Time: 23:54:58
(UTC+00:00)

Envisat - Visible Passes

Search period start: 20 March 2019 00:00
Search period end: 30 March 2019 00:00
Orbit: 764 x 766 km, 98.2° (Epoch: 20 March)

Date Brightness Start Highest point End Pass type
(mag) Time Alt. Az. Time Alt. Az. Time Alt. Az.
20 Mar 5.4 19:53:13 10° SSW 19:57:15 24° W 20:01:18 10° NW visible
21 Mar 3.9 19:15:22 10° S 19:20:18 53° W 19:25:17 10° NNW visible
22 Mar 6.0 20:20:42 10° WSW 20:23:03 13° W 20:25:25 10° WNW visible
23 Mar 5.0 19:41:33 10° SSW 19:45:57 30° W 19:50:24 10° NW visible
24 Mar 3.4 19:04:02 10° S 19:09:04 68° W 19:14:08 10° NNW visible
25 Mar 5.8 20:08:27 10° SW 20:11:43 17° W 20:14:58 10° NW visible
26 Mar 4.6 19:30:00 10° SSW 19:34:41 38° W 19:39:24 10° NNW visible
27 Mar 3.1 18:52:46 10° SSE 18:57:50 86° WSW 19:02:57 10° NNW visible
28 Mar 5.6 19:56:33 10° SW 20:00:23 22° W 20:04:15 10° NW visible
29 Mar 4.1 19:18:32 10° S 19:23:25 48° W 19:28:20 10° NNW visible
